202P/Scotti (2001)

Japanese version
Home page
Updated on September 7, 2008

---------------------------------------------------------------------

* Profile

Designation 202P/2001 X2
Discovery Date December 14, 2001
Magnitude 19.3 mag
Discoverer J. V. Scotti (Kitt Peak)

* Orbital Elements

Epoch 2001 Oct. 18.0 TT = JDT 2452200.5
T 2001 Oct. 14.76935 TT                                 MPC
q   2.5238708            (2000.0)            P               Q
n   0.13424886     Peri.  255.92716     -0.01012914     -0.99990215
a   3.7774232      Node   194.66343     +0.93151319     -0.00592746
e   0.3318538      Incl.    2.18423     +0.36356648     -0.01267070
P   7.34

* Finding Charts

* Magnitudes Graph

        m1 = 14.0 + 5 log d + 10.0 log r

---------------------------------------------------------------------

The orbital elements are published on M.P.E.C. 2008-R30.
The charts are made with StellaNavigator Ver.2.0 for Windows (AstroArts / ASCII).
The magnitudes graphs are made with Comet for Windows.

---------------------------------------------------------------------

Copyright(C) Seiichi Yoshida (comet@aerith.net). All rights reserved.